This demonstration page uses our WeatherBlox Daily Observations layout. Learn more.

Left ArrowRight Arrow

Hourly Observations for July 21, 2017

Temp ( °F °C ) Dew Point ( °F °C ) Humidity (%) Winds ( mph kmh ) Pressure ( in mb ) Visibility ( mi km ) Precip ( " mm )
12:53 am 00:53 Clear 76 24.4 48 8.9 37 37 N 5 7 29.90 1013 10 16 0.00 0.00
1:53 am 01:53 Clear 74 23.3 50 10 43 43 undefined N/A 29.91 1013 10 16 0.00 0.00
2:53 am 02:53 Clear 71 21.7 50 10 47 47 NNW 5 7 29.90 1013 10 16 0.00 0.00
3:53 am 03:53 Clear 70 21.1 51 10.6 51 51 NE 3 6 29.91 1013 10 16 0.00 0.00
4:53 am 04:53 Clear 69 20.6 52 11.1 55 55 NNW 5 7 29.92 1013 10 16 0.00 0.00
5:53 am 05:53 Clear 68 20 52 11.1 57 57 Calm 29.93 1014 10 16 0.00 0.00
6:53 am 06:53 Sunny 69 20.6 53 11.7 57 57 N 3 6 29.93 1014 10 16 0.00 0.00
7:53 am 07:53 Sunny 76 24.4 52 11.1 43 43 NNE 6 9 29.94 1014 10 16 0.00 0.00
8:53 am 08:53 Sunny 81 27.2 52 11.1 37 37 NNW 5 7 29.94 1014 10 16 0.00 0.00
9:53 am 09:53 Sunny 86 30 51 10.6 30 30 NW 5 7 29.93 1014 10 16 0.00 0.00
10:53 am 10:53 Sunny 91 32.8 50 10 25 25 VRB 6 9 29.92 1013 10 16 0.00 0.00
11:53 am 11:53 Sunny 94 34.4 47 8.3 20 20 VRB 6 9 29.91 1013 10 16 0.00 0.00
12:53 pm 12:53 Sunny 97 36.1 45 7.2 17 17 WNW 8 13 29.88 1012 10 16 0.00 0.00
1:53 pm 13:53 Sunny 99 37.2 44 6.7 15 15 WSW 9 15 29.86 1011 10 16 0.00 0.00
2:53 pm 14:53 Sunny 100 37.8 36 2.2 11 11 SW 6 9 29.84 1011 10 16 0.00 0.00
3:53 pm 15:53 Sunny 102 38.9 30 -1.1 8 8 WSW 7 11 29.83 1010 10 16 0.00 0.00
4:53 pm 16:53 Sunny 102 38.9 32 0 9 9 S 5 7 29.81 1010 10 16 0.00 0.00
5:53 pm 17:53 Sunny 102 38.9 31 -0.6 8 8 VRB 5 7 29.80 1009 10 16 0.00 0.00
6:53 pm 18:53 Sunny 102 38.9 31 -0.6 8 8 SW 3 6 29.80 1009 10 16 0.00 0.00
7:53 pm 19:53 Sunny 97 36.1 40 4.4 14 14 S 6 9 29.80 1009 10 16 0.00 0.00
8:53 pm 20:53 Clear 92 33.3 44 6.7 19 19 NW 6 9 29.81 1010 10 16 0.00 0.00
9:53 pm 21:53 Clear 88 31.1 46 7.8 23 23 Calm 29.83 1010 10 16 0.00 0.00
10:53 pm 22:53 Clear 86 30 51 10.6 30 30 SE 8 13 29.85 1011 10 16 0.00 0.00
11:53 pm 23:53 Clear 84 28.9 52 11.1 33 33 undefined N/A 29.86 1011 10 16 0.00 0.00

Powered by AerisWeather